Погода в Томске

Погода в Томске : погода сейчас, прогноз погоды и архив. Всё, что Вы хотите узнать о погоде в Томске!

Хотите узнать прогноз погоды в Томске? Тогда Вам сюда: Погода в Томске

Поиск расширенной информации на нашем сайте:

Полезная информация:

Другие новости

Новости СМИ2

Главная страница сайта

Новости сайта

03.07.2017

Напоминаем, что на нашем специализированном сайте Метеоцентр.Азия вы можете получить высокодетализированные автоматические прогнозы погоды по пунктам России, СНГ и мира в авиационном формате (включающие направление и скорость ветра, видимость, явления погоды, количество и форму облачности, нижнюю и верхнюю границу облачности).

Рекомендуем:

Погода в Томске - сегодня

Время (UTC), дата Ветер
(°,м/с) 
Видим.   Явления Облачность Т
(°С)
Тd
(°С)
f(%) Тe
(°С)
Pmin
(гПа)
dP
(гПа)
Po
(мм)
O2
(г/м3)
Тmin Tmax R s Состояние
почвы
21 18.05.19 130 (ЮВ) 20000 м    10/0 средняя 
[Ac und]
+13.2 -7.1 24 +13  1004  -3  741  285           
00 19.05.19 130 (ЮВ) 20000 м    10/0 средняя 
[Ac und]
+13.7 -6.5 24 +14  1002.3  -1.7  739  284  +12.2        сухая 
03 19.05.19 130 (ЮВ) 20000 м    10/3 1000 м кучево-дожд., средняя 
[Cb cap|Ac und]
+15.6 -3.3 27 +17  1001.3  -0.8  739  282           
06 19.05.19 120 (ЮВ) 20000 м    10/5 1200 м средняя 
[Sc|Ac und]
+16.7 -1.1 30 +18  1000.6  -0.7  738  280           
09 19.05.19 170 (Ю) 20000 м  {дождь}  8/4 1000 м средняя 
[Sc|Ac trans]
+19.2 +4.3 37 +21  1000.5  0.1  738  277           
12 19.05.19 280 (З) 20000 м  {дождь}  8/8 1300 м 
[Sc diur, vesp]
+15 +5.7 54 +15  1003.8  741  282    +21.8  0.3     
15 19.05.19 260 (З) 20000 м    4/0 верхняя 
[Ci fib]
+10.6 +4.2 65 +12  1006.1  2.1  742  287           
18 19.05.19 тихо ()   20000 м    ясно 
+5.9 +3.6 85 +6  1007.2  0.7  743  292           
21 19.05.19 тихо ()   20000 м    ясно 
+3.2 +2.2 93 +3  1007  -0.3  742  295           
00 20.05.19 тихо ()   20000 м    ясно 
+4.3 +2.7 89 +4  1006.6  -0.3  742  294  +2.3        сухая 
03 20.05.19 140 (ЮВ) 20000 м    3/0 средняя 
[Ac As]
+15.5 +3.5 45 +17  1003.7  -2.3  740  282           
06 20.05.19 160 (Ю) 20000 м  в посл. час ливневой дождь  6/5 600 м кучево-дожд., верхняя 
[Cb cap|Ci fib]
+17.9 +2.1 35 +19  1001.9  -1.6  739  279           
09 20.05.19 230 (ЮЗ) 20000 м    9/3 1000 м верхняя 
[Cu med, cong|Cs]
+18.6 -1.4 26 +19  1001.9  0.1  739  279           
12 20.05.19 210 (ЮЗ) 1{10}  20000 м    10/1 1000 м верхняя 
[Cu med, cong|Ci fib]
+16.6 -3.2 26 +18  1003.1  740  281    +20.2  0.0     
15 20.05.19 тихо ()   20000 м    8/0 средняя, верхняя 
[Ac As|Ci fib]
+9.3 -1.7 46 +9  1003  -0.5  740  288           
18 20.05.19 тихо ()   20000 м    10/0 верхняя 
[Ci fib]
+6.8 -3.5 48 +7  1002.2  -1  739  291           
21 20.05.19 тихо ()   20000 м    10/0 средняя, верхняя 
[Ac As|Ci fib]
+5.3 -1.1 63 +5  1000.4  -1.8  738  292           
00 21.05.19 тихо ()   20000 м    10/0 средняя 
[As trans]
+6.2 +2.6 78 +6  999.2  -1.2  737  290  +4.8        сухая 
03 21.05.19 200 (Ю) 20000 м    10/3 1500 м верхняя 
[Sc|Ci fib]
+11.2 +2.2 54 +12  999.5  0.7  737  285           
06 21.05.19 220 (ЮЗ) 20000 м    9/9 600 м кучево-дожд. 
[Cb cap]
+13.8 +0.6 40 +15  999.4  737  283           
09 21.05.19 240 (ЮЗ) 20000 м  {ливн. осадки}  10/10 1000 м 
[Sc]
+13.3 +1.2 44 +15  1000.1  0.7  738  283           
12 21.05.19 220 (ЮЗ) 10 км  слаб. ливневой дождь  10/10 1260 м кучево-дожд. 
[Cb cap]
+8.7 +6.4 85 +10  1000.8  0.4  738  287    +15.4  0.4     
15 21.05.19 270 (З) 20000 м  слаб. ливневой дождь  10/5 600 м кучево-дожд., средняя 
[Cb cap|Ac und]
+7.6 +6.6 93 +9  1000.5  -0.3  738  288           
18 21.05.19 230 (ЮЗ) 20000 м  {ливн. осадки}  10/10 270 м 
[Sc]
+6.2 +4.8 91 +7  1000.8  0.2  738  290           
21 21.05.19 260 (З) 20000 м  {ливн. осадки}  10/10 210 м 
[Sc]
+5.8 +5 95 +7  1002.6  1.7  739  291           
Время (UTC), дата Ветер
(°,м/с) 
Видим.   Явления Облачность Т
(°С)
Тd
(°С)
f(%) Тe
(°С)
Pmin
(гПа)
dP
(гПа)
Po
(мм)
O2
(г/м3)
Тmin Tmax R s Состояние
почвы

Для получения пояснительной информации подведите курсор к названию столбца.

ПОГОДА в Томске - архив

Всё, что Вы хотите узнать о погоде в Томске - удобно и подробно!

Выберите нужную дату (начиная с 1 января 2018* года) и нажмите кнопку "Найти".
Будут отображены архивные сводки погоды по пункту Томск, начиная с указанной даты.


Отображать данные в формате CSV (для использования в таблицах Excel)


Внимание! Наш архив погоды предназначен исключительно для личного некоммерческого использования в познавательных целях. Если Вам необходимы официальные справки о состоянии погоды (для производственных, юридических, коммерческих и т.п. целей), обращайтесь в органы Росгидромета.

*Примечание: данная дата относится к архиву по метеостанциям СССР (Россия, СНГ, Балтия).
Архив по метеостанциям Зарубежной Европы и Азии (кроме Китая) хранится 10 дней, по другим регионам земного шара (Китай, Африка, Америка, Австралия, Океания) - 1 день.

Томск - район местоположения метеостанции


Название, широта, долгота, высота метеостанции:
Томск 56.5°ш. 84.9°д. 139 м над ур. моря [Российская Федерация]

Дополнительная информация

В oтличие oт бoльшинства пoгoдных сайтoв мы публикуем пoдрoбную метеoинфoрмацию в детальнoм прoфессиoнальнoм фoрмате.

Характеристики температуры и влажнoсти вoздуха измеряются на высoте 2 м в тени вдали oт зданий и деревьев.
Скoрoсть ветра измеряется на высoте 10 м (на урoвне рoста челoвека скoрoсть ветра ниже в 1.5-2 раза). Если метеoстанция нахoдится в гoрoде или в лесу, тo скoрoсть ветра занижена на 2-4 м/с пo сравнению с oткрытым местoм. Скoрoсть ветра над акватoриями крупных рек и oзёр, а также на вершинах хoлмoв на 2-5 м/с выше, чем в oбычных услoвиях.
Атмoсфернoе давление в разных тoчках местнoсти мoжет значительнo oтличаться oт давления на метеoстанции, в зависимoсти oт услoвий рельефа (при пoдъёме на 10 м давление пoнижается примернo на 1 мм рт.ст.).